User: anonymous   Login
Location: *
(43.9900°N, 3.4811°E)
Time: 07:45:15
(UTC+00:00)
Language:

Cosmos 1697 Rocket - Orbit

View from above orbital plane
View from above orbital plane
View from above satellite
View from above satellite

Ground track
Ground track

The orbit data is extracted from the following two-line orbital elements,

1 16182U 85097B   19295.87676392 -.00000078 +00000-0 -15016-4 0  9995
2 16182 071.0053 003.4747 0008883 221.5885 261.4641 14.16247710757375
Epoch (UTC): 22 October 2019 21:02:32
Eccentricity: 0.0008883
inclination: 71.0053°
perigee height: 831 km
apogee height: 844 km
right ascension of ascending node: 3.4747°
argument of perigee: 221.5885°
revolutions per day: 14.16247710
mean anomaly at epoch: 261.4641°
orbit number at epoch: 75737

The dashed part of the orbit path shows where the satellite is in the earth's shadow,  

DLR